Precipitable_Water
0.18 0.19 0.25 0.29 0.33 0.42 0.53 0.56 0.58 0.63 0.74 0.76 0.77 0.69 0.67 0.68 0.80 0.95 1.03 1.22 1.25 1.16 1.16 1.21 1.27 1.26 1.26 1.30 1.38 1.42 1.42 1.35 1.26 1.18 1.17 1.13 1.07 1.00 0.99 0.96 0.99 1.01 1.11 1.24 1.30 1.39 1.43 1.49 1.51 1.53 1.56 1.56 1.58 1.58 1.57 1.56 1.55 1.55 1.54 1.53 1.45 1.49 1.51 1.50 1.51 1.56 1.54 1.53 1.56 1.59 1.55 1.54 1.58 1.63 1.64 1.64 1.66 1.65 1.67 1.63 1.61 1.58 1.62 1.64 1.63 1.63
0.21 0.19 0.24 0.30 0.40 0.48 0.51 0.50 0.52 0.57 0.65 0.66 0.71 0.68 0.63 0.65 0.69 0.87 0.95 1.09 1.29 1.08 1.07 1.23 1.21 1.19 1.23 1.32 1.36 1.43 1.37 1.29 1.25 1.17 1.13 1.11 1.09 1.03 0.99 0.94 0.97 1.02 1.18 1.23 1.27 1.35 1.41 1.47 1.49 1.51 1.53 1.55 1.50 1.51 1.51 1.48 1.51 1.52 1.55 1.49 1.47 1.48 1.46 1.45 1.49 1.53 1.54 1.55 1.56 1.52 1.51 1.52 1.55 1.56 1.55 1.57 1.59 1.62 1.64 1.60 1.61 1.59 1.61 1.59 1.61 1.62
0.18 0.20 0.36 0.44 0.46 0.41 0.38 0.40 0.45 0.52 0.58 0.65 0.65 0.67 0.64 0.67 0.74 0.90 0.91 1.03 1.16 1.10 1.07 1.20 1.13 1.18 1.27 1.34 1.43 1.38 1.36 1.38 1.37 1.29 1.18 1.11 1.07 1.03 1.00 0.94 0.96 1.04 1.10 1.16 1.23 1.31 1.37 1.44 1.48 1.50 1.51 1.52 1.55 1.53 1.49 1.51 1.51 1.50 1.50 1.48 1.50 1.45 1.46 1.45 1.48 1.52 1.53 1.57 1.60 1.59 1.56 1.56 1.54 1.62 1.64 1.61 1.60 1.61 1.55 1.53 1.55 1.60 1.59 1.58 1.63 1.64
0.20 0.23 0.42 0.49 0.46 0.39 0.39 0.40 0.41 0.44 0.52 0.56 0.62 0.62 0.57 0.71 0.62 0.59 0.86 0.94 1.04 1.10 1.05 1.13 1.10 1.16 1.29 1.38 1.39 1.44 1.42 1.43 1.44 1.38 1.27 1.18 1.07 1.04 0.99 0.95 0.93 1.00 1.05 1.08 1.17 1.24 1.34 1.41 1.47 1.48 1.48 1.51 1.53 1.50 1.49 1.49 1.49 1.50 1.50 1.49 1.48 1.47 1.50 1.49 1.49 1.51 1.56 1.61 1.63 1.70 1.65 1.68 1.63 1.58 1.65 1.62 1.59 1.55 1.50 1.46 1.54 1.59 1.60 1.63 1.64 1.67
0.23 0.37 0.44 0.41 0.40 0.41 0.38 0.38 0.37 0.38 0.38 0.45 0.50 0.53 0.56 0.67 0.64 0.66 0.77 0.86 1.03 1.13 1.19 1.14 1.08 1.08 1.18 1.18 1.24 1.36 1.45 1.42 1.42 1.39 1.29 1.21 1.16 1.13 1.09 1.00 0.98 0.99 1.03 1.06 1.14 1.23 1.30 1.35 1.41 1.44 1.47 1.51 1.50 1.49 1.47 1.48 1.48 1.48 1.50 1.51 1.51 1.51 1.50 1.51 1.46 1.48 1.52 1.55 1.56 1.61 1.62 1.66 1.63 1.62 1.56 1.48 1.43 1.46 1.49 1.49 1.50 1.58 1.65 1.64 1.70 1.67
0.27 0.36 0.36 0.33 0.37 0.41 0.39 0.34 0.35 0.39 0.37 0.40 0.47 0.50 0.56 0.71 0.75 0.81 0.79 0.85 0.85 0.84 1.05 1.02 0.81 0.85 1.07 1.15 1.19 1.32 1.35 1.33 1.41 1.32 1.23 1.18 1.13 1.14 1.07 0.99 0.97 1.02 1.06 1.07 1.12 1.21 1.30 1.34 1.42 1.45 1.46 1.45 1.48 1.50 1.51 1.50 1.51 1.51 1.52 1.53 1.52 1.54 1.55 1.50 1.45 1.49 1.48 1.44 1.44 1.46 1.40 1.37 1.39 1.36 1.36 1.32 1.33 1.38 1.40 1.49 1.55 1.62 1.65 1.64 1.67 1.66
0.26 0.35 0.31 0.30 0.32 0.35 0.37 0.36 0.41 0.36 0.36 0.37 0.47 0.57 0.61 0.72 0.79 0.80 0.76 0.77 0.68 0.66 0.98 1.12 0.79 0.75 1.06 1.05 1.13 1.20 1.23 1.27 1.37 1.30 1.24 1.20 1.13 1.10 1.08 1.01 0.96 0.97 1.02 1.10 1.17 1.23 1.29 1.33 1.38 1.42 1.42 1.44 1.45 1.50 1.56 1.51 1.51 1.54 1.56 1.55 1.52 1.53 1.52 1.53 1.48 1.47 1.43 1.40 1.41 1.42 1.42 1.40 1.36 1.34 1.37 1.47 1.51 1.49 1.49 1.60 1.55 1.58 1.60 1.63 1.63 1.61
0.24 0.27 0.28 0.28 0.29 0.29 0.31 0.30 0.35 0.32 0.33 0.32 0.55 0.59 0.54 0.70 0.82 0.82 0.77 0.75 0.73 0.91 1.04 1.06 0.97 0.81 0.80 0.97 1.14 1.19 1.17 1.19 1.23 1.26 1.27 1.22 1.15 1.08 1.07 1.03 0.97 0.97 1.02 1.03 1.11 1.18 1.29 1.33 1.36 1.37 1.42 1.43 1.47 1.52 1.55 1.49 1.51 1.51 1.56 1.55 1.50 1.51 1.49 1.50 1.50 1.45 1.43 1.36 1.36 1.38 1.39 1.40 1.40 1.40 1.37 1.44 1.51 1.55 1.52 1.56 1.51 1.51 1.53 1.56 1.61 1.63
0.24 0.23 0.23 0.27 0.26 0.28 0.28 0.32 0.38 0.36 0.31 0.47 0.61 0.60 0.58 0.70 0.86 0.83 0.76 0.73 0.80 0.78 0.73 0.89 1.03 0.80 0.81 1.03 1.17 1.15 1.07 1.13 1.16 1.20 1.26 1.26 1.19 1.08 1.04 1.02 0.97 0.95 1.02 1.04 1.08 1.15 1.25 1.29 1.33 1.39 1.41 1.44 1.49 1.52 1.52 1.50 1.50 1.53 1.57 1.55 1.51 1.47 1.46 1.45 1.47 1.45 1.42 1.40 1.37 1.36 1.36 1.35 1.42 1.42 1.40 1.44 1.48 1.49 1.49 1.44 1.49 1.49 1.51 1.51 1.55 1.60
0.25 0.24 0.28 0.25 0.26 0.26 0.30 0.32 0.32 0.31 0.27 0.48 0.56 0.64 0.64 0.72 0.89 0.85 0.69 0.70 0.74 0.68 0.62 0.77 0.91 0.71 0.74 0.98 1.02 1.13 1.06 1.02 1.09 1.18 1.26 1.29 1.24 1.12 1.00 0.99 0.97 0.95 1.01 1.06 1.10 1.17 1.25 1.33 1.35 1.41 1.44 1.43 1.47 1.53 1.55 1.55 1.52 1.53 1.55 1.51 1.47 1.46 1.44 1.44 1.46 1.43 1.42 1.41 1.36 1.31 1.31 1.31 1.34 1.37 1.38 1.40 1.39 1.41 1.41 1.39 1.40 1.41 1.47 1.48 1.46 1.48
0.30 0.28 0.30 0.24 0.23 0.25 0.30 0.31 0.29 0.27 0.30 0.60 0.55 0.58 0.61 0.69 0.78 0.86 0.73 0.71 0.67 0.53 0.63 0.81 0.89 0.80 0.65 0.87 0.95 0.95 0.97 1.06 1.12 1.17 1.25 1.33 1.32 1.18 1.00 0.95 0.95 0.93 0.98 1.05 1.09 1.15 1.26 1.34 1.39 1.42 1.40 1.42 1.46 1.53 1.52 1.52 1.50 1.50 1.50 1.48 1.45 1.47 1.46 1.46 1.44 1.41 1.38 1.39 1.36 1.30 1.30 1.30 1.30 1.32 1.34 1.32 1.31 1.33 1.32 1.30 1.34 1.35 1.37 1.43 1.42 1.41
0.25 0.27 0.25 0.27 0.26 0.29 0.31 0.33 0.30 0.30 0.41 0.40 0.44 0.46 0.61 0.63 0.77 0.73 0.69 0.72 0.50 0.48 0.68 0.78 0.85 0.89 0.62 0.80 0.98 1.06 1.12 1.14 1.10 1.10 1.16 1.27 1.30 1.19 1.00 0.95 0.96 0.95 0.97 1.04 1.08 1.13 1.23 1.31 1.39 1.40 1.38 1.40 1.42 1.48 1.48 1.50 1.49 1.47 1.46 1.47 1.43 1.46 1.46 1.47 1.44 1.41 1.39 1.38 1.37 1.35 1.32 1.29 1.30 1.31 1.31 1.28 1.27 1.30 1.29 1.29 1.31 1.37 1.38 1.36 1.38 1.41
0.22 0.23 0.26 0.27 0.31 0.27 0.26 0.26 0.32 0.33 0.40 0.38 0.40 0.43 0.38 0.42 0.56 0.46 0.58 0.49 0.45 0.45 0.72 0.77 0.82 0.78 0.75 0.84 1.04 1.07 1.10 1.17 1.21 1.18 1.18 1.22 1.30 1.23 1.03 0.96 0.98 0.99 0.97 1.01 1.06 1.12 1.21 1.28 1.33 1.34 1.38 1.39 1.39 1.41 1.45 1.47 1.46 1.46 1.44 1.43 1.39 1.41 1.46 1.47 1.45 1.40 1.41 1.40 1.38 1.37 1.38 1.35 1.37 1.33 1.33 1.29 1.30 1.32 1.30 1.30 1.30 1.30 1.27 1.31 1.30 1.34
0.24 0.27 0.26 0.27 0.28 0.29 0.29 0.24 0.35 0.29 0.39 0.36 0.34 0.36 0.31 0.32 0.43 0.39 0.45 0.50 0.50 0.60 0.66 0.71 0.88 0.65 0.82 0.95 1.07 1.05 1.13 1.20 1.27 1.28 1.28 1.25 1.30 1.26 1.07 0.99 0.97 0.99 0.99 1.00 1.05 1.11 1.19 1.27 1.32 1.35 1.36 1.38 1.39 1.40 1.42 1.47 1.45 1.45 1.43 1.40 1.37 1.40 1.45 1.47 1.45 1.43 1.41 1.41 1.43 1.44 1.43 1.43 1.42 1.38 1.37 1.35 1.33 1.34 1.34 1.34 1.33 1.32 1.30 1.28 1.28 1.31
0.20 0.22 0.23 0.27 0.24 0.30 0.29 0.28 0.36 0.37 0.43 0.38 0.40 0.35 0.32 0.33 0.41 0.37 0.42 0.40 0.41 0.55 0.68 0.79 0.62 0.58 0.68 0.79 1.05 1.13 1.20 1.26 1.31 1.34 1.34 1.32 1.36 1.35 1.16 1.03 0.99 1.00 1.02 1.04 1.06 1.10 1.18 1.25 1.31 1.34 1.34 1.36 1.38 1.40 1.41 1.44 1.44 1.45 1.44 1.41 1.36 1.38 1.43 1.45 1.44 1.46 1.42 1.43 1.45 1.48 1.48 1.48 1.49 1.45 1.42 1.43 1.44 1.43 1.38 1.39 1.35 1.37 1.39 1.35 1.35 1.35
0.22 0.28 0.40 0.36 0.51 0.39 0.28 0.31 0.32 0.35 0.35 0.42 0.42 0.40 0.32 0.31 0.50 0.44 0.54 0.56 0.56 0.57 0.57 0.64 0.60 0.73 0.75 1.05 1.16 1.19 1.22 1.24 1.31 1.33 1.34 1.32 1.38 1.41 1.24 1.05 0.99 1.00 1.02 1.04 1.06 1.10 1.16 1.23 1.28 1.33 1.33 1.34 1.37 1.39 1.42 1.44 1.45 1.44 1.44 1.45 1.40 1.39 1.42 1.43 1.43 1.45 1.46 1.46 1.48 1.50 1.50 1.51 1.55 1.55 1.51 1.49 1.48 1.47 1.46 1.44 1.42 1.41 1.41 1.43 1.43 1.43
0.27 0.25 0.37 0.39 0.38 0.40 0.39 0.37 0.32 0.37 0.28 0.43 0.42 0.34 0.32 0.44 0.50 0.48 0.50 0.55 0.52 0.45 0.43 0.67 0.64 0.75 0.87 0.95 1.09 1.15 1.16 1.20 1.26 1.29 1.30 1.29 1.35 1.39 1.28 1.16 1.05 1.03 1.04 1.05 1.06 1.11 1.14 1.21 1.25 1.30 1.33 1.34 1.36 1.38 1.40 1.43 1.46 1.46 1.46 1.45 1.41 1.42 1.44 1.43 1.43 1.44 1.46 1.48 1.47 1.49 1.51 1.54 1.56 1.55 1.53 1.50 1.48 1.47 1.47 1.48 1.47 1.45 1.44 1.43 1.44 1.43
0.30 0.32 0.38 0.40 0.45 0.47 0.51 0.49 0.48 0.45 0.39 0.56 0.36 0.40 0.49 0.60 0.60 0.53 0.43 0.55 0.52 0.40 0.50 0.59 0.52 0.61 0.65 0.63 1.04 1.09 1.10 1.15 1.19 1.24 1.27 1.29 1.35 1.36 1.31 1.25 1.13 1.05 1.06 1.10 1.11 1.16 1.18 1.21 1.24 1.28 1.34 1.36 1.35 1.38 1.41 1.45 1.49 1.50 1.50 1.48 1.44 1.42 1.41 1.43 1.45 1.45 1.46 1.45 1.45 1.47 1.49 1.51 1.55 1.57 1.56 1.58 1.56 1.52 1.48 1.45 1.46 1.50 1.46 1.46 1.47 1.43
0.32 0.26 0.36 0.41 0.49 0.61 0.57 0.55 0.50 0.54 0.52 0.46 0.43 0.70 0.43 0.38 0.34 0.50 0.51 0.41 0.40 0.37 0.44 0.54 0.58 0.59 0.62 0.69 0.91 0.97 1.02 1.11 1.17 1.23 1.25 1.29 1.31 1.32 1.32 1.28 1.22 1.14 1.10 1.12 1.11 1.14 1.17 1.19 1.22 1.24 1.30 1.36 1.38 1.40 1.43 1.49 1.52 1.51 1.51 1.51 1.49 1.45 1.47 1.48 1.47 1.50 1.52 1.50 1.47 1.47 1.46 1.46 1.49 1.56 1.60 1.64 1.64 1.60 1.52 1.48 1.48 1.46 1.49 1.52 1.53 1.49
0.35 0.27 0.34 0.45 0.48 0.54 0.56 0.51 0.44 0.44 0.47 0.54 0.59 0.52 0.62 0.60 0.48 0.54 0.51 0.60 0.52 0.41 0.39 0.48 0.51 0.57 0.68 0.81 0.93 0.96 1.06 1.12 1.16 1.18 1.19 1.25 1.32 1.35 1.32 1.27 1.23 1.19 1.12 1.13 1.11 1.13 1.17 1.20 1.22 1.24 1.27 1.32 1.37 1.39 1.44 1.50 1.52 1.50 1.51 1.50 1.50 1.52 1.53 1.53 1.52 1.50 1.46 1.48 1.49 1.47 1.48 1.46 1.46 1.48 1.52 1.60 1.61 1.57 1.55 1.54 1.54 1.51 1.49 1.50 1.55 1.52
0.32 0.37 0.27 0.46 0.51 0.57 0.58 0.52 0.49 0.54 0.47 0.42 0.38 0.44 0.54 0.49 0.71 0.64 0.65 0.51 0.50 0.46 0.43 0.52 0.47 0.60 0.76 1.01 0.97 1.01 1.08 1.15 1.17 1.16 1.21 1.27 1.32 1.37 1.36 1.30 1.26 1.24 1.20 1.16 1.15 1.16 1.19 1.22 1.24 1.26 1.30 1.35 1.40 1.43 1.44 1.48 1.49 1.51 1.54 1.51 1.52 1.50 1.51 1.51 1.53 1.53 1.50 1.50 1.47 1.46 1.43 1.42 1.42 1.43 1.46 1.49 1.54 1.53 1.55 1.57 1.55 1.55 1.57 1.59 1.55 1.59
0.31 0.35 0.29 0.37 0.42 0.52 0.47 0.62 0.63 0.63 0.58 0.53 0.41 0.41 0.61 0.56 0.47 0.39 0.41 0.57 0.54 0.46 0.47 0.52 0.51 0.66 0.91 1.11 1.06 1.06 1.14 1.18 1.23 1.20 1.24 1.27 1.32 1.37 1.40 1.39 1.32 1.25 1.25 1.20 1.19 1.19 1.22 1.24 1.25 1.29 1.33 1.37 1.40 1.42 1.43 1.47 1.51 1.52 1.52 1.56 1.55 1.54 1.55 1.54 1.54 1.54 1.55 1.55 1.53 1.46 1.44 1.43 1.46 1.46 1.47 1.46 1.51 1.50 1.53 1.54 1.55 1.57 1.60 1.57 1.62 1.61
0.39 0.41 0.34 0.30 0.36 0.38 0.46 0.56 0.63 0.65 0.66 0.62 0.50 0.60 0.74 0.66 0.62 0.48 0.41 0.50 0.53 0.54 0.60 0.62 0.60 0.64 1.05 1.16 1.13 1.13 1.14 1.21 1.25 1.22 1.21 1.28 1.32 1.37 1.42 1.45 1.40 1.32 1.29 1.26 1.23 1.22 1.24 1.26 1.28 1.30 1.32 1.33 1.36 1.39 1.42 1.47 1.51 1.53 1.55 1.58 1.59 1.56 1.56 1.59 1.60 1.60 1.61 1.59 1.57 1.53 1.51 1.48 1.48 1.49 1.47 1.48 1.51 1.51 1.52 1.54 1.54 1.59 1.56 1.57 1.62 1.67
0.44 0.34 0.32 0.32 0.41 0.45 0.49 0.56 0.67 0.69 0.74 0.59 0.62 0.75 0.66 0.59 0.59 0.60 0.59 0.66 0.51 0.52 0.49 0.61 0.53 0.66 1.00 1.17 1.17 1.19 1.21 1.23 1.26 1.28 1.25 1.28 1.35 1.38 1.43 1.45 1.42 1.36 1.36 1.34 1.31 1.28 1.29 1.31 1.32 1.30 1.33 1.34 1.36 1.38 1.40 1.46 1.51 1.56 1.58 1.60 1.60 1.56 1.58 1.60 1.62 1.64 1.63 1.60 1.57 1.58 1.56 1.51 1.50 1.50 1.50 1.48 1.52 1.54 1.55 1.58 1.59 1.60 1.58 1.59 1.62 1.63
0.33 0.50 0.34 0.33 0.35 0.36 0.41 0.50 0.55 0.67 0.65 0.61 0.64 0.72 0.70 0.66 0.60 0.65 0.64 0.71 0.53 0.53 0.57 0.58 0.46 0.58 0.93 1.13 1.15 1.19 1.22 1.20 1.23 1.28 1.32 1.27 1.32 1.34 1.42 1.47 1.46 1.41 1.39 1.38 1.35 1.32 1.31 1.31 1.32 1.31 1.35 1.36 1.36 1.38 1.41 1.44 1.49 1.54 1.58 1.61 1.60 1.60 1.62 1.61 1.63 1.64 1.65 1.63 1.59 1.58 1.56 1.54 1.52 1.51 1.51 1.50 1.51 1.50 1.53 1.55 1.60 1.64 1.60 1.60 1.59 1.64
0.40 0.43 0.41 0.28 0.26 0.26 0.24 0.27 0.41 0.50 0.58 0.64 0.70 0.67 0.71 0.68 0.61 0.55 0.47 0.55 0.47 0.55 0.59 0.54 0.54 0.68 0.97 1.08 1.08 1.13 1.15 1.15 1.21 1.28 1.35 1.38 1.33 1.31 1.35 1.45 1.47 1.45 1.42 1.39 1.40 1.37 1.32 1.32 1.36 1.36 1.38 1.39 1.39 1.40 1.41 1.44 1.49 1.52 1.56 1.59 1.63 1.63 1.63 1.62 1.63 1.61 1.63 1.65 1.62 1.59 1.56 1.56 1.56 1.53 1.52 1.52 1.51 1.52 1.53 1.54 1.54 1.60 1.63 1.61 1.61 1.65
0.50 0.57 0.56 0.49 0.41 0.34 0.35 0.50 0.65 0.72 0.60 0.50 0.62 0.63 0.67 0.71 0.74 0.67 0.60 0.54 0.48 0.53 0.52 0.56 0.59 0.67 0.87 0.98 1.00 1.04 1.10 1.12 1.16 1.20 1.25 1.30 1.34 1.39 1.40 1.41 1.44 1.49 1.47 1.39 1.41 1.41 1.41 1.38 1.38 1.39 1.41 1.41 1.41 1.42 1.44 1.45 1.49 1.52 1.54 1.58 1.63 1.67 1.67 1.67 1.65 1.62 1.60 1.62 1.60 1.59 1.58 1.56 1.57 1.59 1.59 1.57 1.56 1.57 1.57 1.56 1.56 1.56 1.61 1.66 1.63 1.64
0.50 0.47 0.54 0.53 0.51 0.51 0.53 0.57 0.61 0.63 0.58 0.58 0.57 0.61 0.68 0.68 0.68 0.62 0.52 0.49 0.59 0.52 0.46 0.63 0.65 0.56 0.81 0.86 1.01 1.06 1.12 1.15 1.17 1.20 1.22 1.31 1.33 1.37 1.41 1.45 1.44 1.46 1.49 1.48 1.47 1.49 1.46 1.44 1.43 1.42 1.43 1.44 1.43 1.45 1.48 1.53 1.52 1.52 1.53 1.55 1.61 1.67 1.68 1.70 1.69 1.68 1.64 1.61 1.58 1.56 1.56 1.57 1.58 1.60 1.63 1.66 1.66 1.62 1.61 1.60 1.59 1.59 1.62 1.68 1.67 1.63
0.42 0.41 0.54 0.51 0.51 0.58 0.63 0.62 0.65 0.62 0.60 0.60 0.58 0.59 0.62 0.67 0.71 0.63 0.58 0.58 0.60 0.52 0.47 0.73 0.72 0.70 0.80 0.90 1.05 1.13 1.18 1.15 1.17 1.25 1.28 1.34 1.41 1.45 1.48 1.48 1.49 1.46 1.46 1.47 1.49 1.55 1.53 1.51 1.49 1.49 1.49 1.52 1.51 1.47 1.51 1.57 1.58 1.58 1.58 1.61 1.64 1.67 1.68 1.73 1.71 1.70 1.67 1.64 1.57 1.56 1.58 1.58 1.58 1.60 1.62 1.65 1.68 1.66 1.63 1.64 1.65 1.64 1.65 1.66 1.65 1.66
0.46 0.48 0.48 0.55 0.54 0.56 0.58 0.60 0.58 0.52 0.50 0.56 0.59 0.61 0.63 0.64 0.67 0.69 0.66 0.69 0.63 0.60 0.60 0.60 0.71 0.75 0.84 0.95 1.09 1.21 1.30 1.27 1.25 1.32 1.29 1.28 1.35 1.42 1.53 1.54 1.53 1.53 1.49 1.50 1.55 1.61 1.63 1.60 1.59 1.56 1.57 1.56 1.56 1.56 1.58 1.58 1.62 1.66 1.64 1.64 1.66 1.66 1.71 1.72 1.69 1.68 1.67 1.65 1.62 1.65 1.67 1.66 1.62 1.59 1.59 1.60 1.60 1.63 1.63 1.64 1.65 1.67 1.66 1.66 1.64 1.63
0.41 0.50 0.52 0.55 0.49 0.52 0.57 0.54 0.55 0.52 0.52 0.49 0.55 0.63 0.64 0.65 0.67 0.70 0.72 0.72 0.69 0.70 0.68 0.63 0.72 0.72 0.91 1.10 1.14 1.29 1.34 1.34 1.28 1.22 1.20 1.25 1.33 1.44 1.55 1.57 1.60 1.59 1.60 1.58 1.58 1.62 1.71 1.70 1.69 1.64 1.59 1.57 1.56 1.56 1.59 1.66 1.67 1.70 1.66 1.66 1.72 1.74 1.80 1.78 1.72 1.68 1.67 1.67 1.72 1.76 1.78 1.76 1.71 1.65 1.58 1.57 1.58 1.61 1.61 1.60 1.64 1.66 1.67 1.68 1.68 1.68
0.44 0.50 0.57 0.55 0.43 0.46 0.53 0.54 0.54 0.54 0.54 0.56 0.56 0.60 0.60 0.61 0.59 0.62 0.64 0.78 0.70 0.66 0.68 0.71 0.71 0.70 0.95 1.11 1.16 1.23 1.29 1.27 1.20 1.19 1.19 1.23 1.29 1.39 1.50 1.55 1.59 1.60 1.60 1.60 1.64 1.67 1.67 1.66 1.67 1.66 1.63 1.65 1.65 1.63 1.64 1.66 1.70 1.73 1.68 1.75 1.76 1.74 1.79 1.82 1.81 1.76 1.74 1.75 1.80 1.82 1.81 1.79 1.78 1.73 1.67 1.61 1.57 1.58 1.60 1.61 1.59 1.61 1.64 1.63 1.65 1.67
0.46 0.48 0.47 0.50 0.40 0.42 0.54 0.54 0.50 0.48 0.49 0.46 0.54 0.54 0.60 0.65 0.68 0.70 0.75 0.82 0.82 0.80 0.74 0.66 0.67 0.92 1.02 1.12 1.05 1.14 1.19 1.23 1.22 1.22 1.18 1.20 1.27 1.29 1.39 1.54 1.60 1.65 1.65 1.66 1.65 1.66 1.69 1.70 1.70 1.71 1.68 1.69 1.70 1.69 1.72 1.73 1.69 1.69 1.76 1.77 1.82 1.82 1.78 1.76 1.74 1.76 1.78 1.82 1.84 1.86 1.85 1.84 1.81 1.79 1.76 1.73 1.67 1.59 1.57 1.56 1.56 1.56 1.56 1.54 1.59 1.63
0.43 0.45 0.43 0.50 0.36 0.42 0.47 0.49 0.47 0.41 0.29 0.38 0.66 0.70 0.66 0.62 0.64 0.64 0.67 0.73 0.83 0.84 0.77 1.00 1.10 1.10 1.10 1.08 1.08 1.10 1.13 1.19 1.24 1.32 1.34 1.27 1.25 1.29 1.34 1.43 1.60 1.68 1.72 1.73 1.72 1.72 1.71 1.73 1.70 1.73 1.75 1.81 1.83 1.78 1.76 1.74 1.73 1.75 1.81 1.83 1.86 1.87 1.84 1.79 1.77 1.77 1.75 1.76 1.81 1.84 1.88 1.86 1.83 1.81 1.82 1.83 1.81 1.73 1.61 1.55 1.51 1.54 1.56 1.57 1.59 1.56
0.42 0.43 0.42 0.44 0.39 0.43 0.53 0.46 0.37 0.29 0.33 0.61 0.75 0.75 0.74 0.73 0.73 0.70 0.77 0.84 0.85 0.85 0.90 1.12 1.19 1.14 1.12 1.16 1.15 1.20 1.23 1.25 1.30 1.29 1.32 1.35 1.35 1.33 1.35 1.39 1.42 1.53 1.68 1.68 1.69 1.71 1.71 1.71 1.71 1.72 1.69 1.68 1.71 1.77 1.77 1.78 1.79 1.79 1.79 1.83 1.82 1.88 1.86 1.81 1.78 1.78 1.78 1.77 1.83 1.83 1.83 1.86 1.86 1.84 1.85 1.86 1.86 1.82 1.73 1.65 1.59 1.57 1.57 1.56 1.55 1.57
0.39 0.38 0.42 0.41 0.42 0.43 0.38 0.39 0.27 0.31 0.51 0.69 0.71 0.76 0.78 0.77 0.76 0.73 0.74 0.86 0.90 0.90 0.99 1.18 1.06 1.12 1.19 1.15 1.25 1.27 1.25 1.26 1.27 1.30 1.35 1.35 1.39 1.38 1.37 1.40 1.43 1.47 1.49 1.58 1.63 1.67 1.65 1.66 1.66 1.69 1.76 1.86 1.84 1.86 1.82 1.81 1.86 1.83 1.81 1.85 1.82 1.82 1.83 1.84 1.84 1.80 1.81 1.82 1.87 1.87 1.85 1.84 1.83 1.85 1.87 1.88 1.84 1.83 1.80 1.77 1.72 1.64 1.65 1.63 1.63 1.64
0.39 0.41 0.40 0.38 0.44 0.34 0.38 0.37 0.38 0.49 0.52 0.57 0.64 0.67 0.72 0.66 0.68 0.67 0.62 0.76 0.97 0.95 1.08 1.20 1.15 1.20 1.12 1.18 1.24 1.26 1.27 1.25 1.17 1.20 1.37 1.36 1.36 1.40 1.40 1.42 1.48 1.47 1.55 1.65 1.70 1.67 1.68 1.70 1.72 1.78 1.83 1.83 1.84 1.79 1.78 1.83 1.81 1.81 1.83 1.83 1.84 1.85 1.85 1.86 1.85 1.84 1.84 1.86 1.88 1.86 1.88 1.88 1.86 1.83 1.85 1.86 1.84 1.83 1.82 1.80 1.81 1.79 1.76 1.66 1.65 1.63
0.42 0.36 0.42 0.35 0.40 0.39 0.36 0.36 0.39 0.40 0.35 0.48 0.66 0.73 0.82 0.82 0.79 0.84 0.78 0.76 0.95 1.03 1.12 1.27 1.12 1.15 1.11 1.16 1.18 1.19 1.19 1.05 0.94 1.03 1.26 1.34 1.37 1.37 1.42 1.46 1.51 1.56 1.55 1.58 1.64 1.67 1.65 1.67 1.74 1.80 1.79 1.78 1.78 1.80 1.83 1.86 1.85 1.77 1.74 1.79 1.84 1.87 1.87 1.87 1.84 1.87 1.87 1.86 1.88 1.89 1.91 1.94 1.94 1.89 1.84 1.82 1.80 1.87 1.88 1.84 1.83 1.82 1.83 1.76 1.73 1.67
0.37 0.37 0.41 0.34 0.34 0.34 0.34 0.31 0.34 0.34 0.43 0.63 0.66 0.72 0.80 0.82 0.79 0.80 0.70 0.67 0.95 1.04 1.17 1.18 1.16 1.18 1.17 1.15 1.12 1.13 1.02 0.86 0.87 1.02 1.21 1.31 1.33 1.36 1.35 1.38 1.43 1.46 1.53 1.59 1.57 1.59 1.63 1.70 1.75 1.75 1.75 1.75 1.73 1.82 1.88 1.88 1.85 1.82 1.76 1.76 1.77 1.80 1.82 1.86 1.90 1.91 1.88 1.93 1.95 1.94 1.92 1.92 1.90 1.90 1.89 1.85 1.81 1.86 1.86 1.85 1.83 1.84 1.83 1.80 1.79 1.75
0.32 0.32 0.31 0.29 0.28 0.31 0.32 0.30 0.32 0.42 0.48 0.61 0.68 0.73 0.80 0.84 0.78 0.69 0.46 0.52 0.89 1.04 1.14 1.19 1.16 1.23 1.22 1.17 1.15 1.11 1.00 0.81 0.87 1.01 1.22 1.29 1.35 1.39 1.39 1.33 1.34 1.39 1.43 1.49 1.55 1.63 1.66 1.71 1.72 1.69 1.69 1.72 1.79 1.89 1.84 1.87 1.79 1.77 1.78 1.75 1.84 1.81 1.84 1.85 1.88 1.92 1.92 1.99 2.00 1.99 1.91 1.87 1.87 1.89 1.89 1.87 1.85 1.85 1.89 1.97 1.95 1.90 1.89 1.90 1.91 1.88
0.31 0.31 0.29 0.26 0.28 0.30 0.28 0.31 0.35 0.43 0.54 0.67 0.73 0.79 0.81 0.84 0.72 0.49 0.43 0.67 0.94 1.04 1.13 1.20 1.18 1.27 1.29 1.22 1.22 1.05 1.09 1.10 1.10 1.17 1.22 1.27 1.27 1.32 1.40 1.44 1.43 1.43 1.40 1.44 1.50 1.58 1.61 1.67 1.70 1.71 1.74 1.80 1.85 1.80 1.76 1.77 1.72 1.70 1.71 1.79 1.87 1.91 1.91 1.94 1.98 1.95 1.96 1.99 2.03 2.00 1.92 1.88 1.83 1.79 1.86 1.94 1.87 1.85 1.97 2.08 2.04 2.04 2.04 2.00 1.99 1.98
0.28 0.30 0.35 0.29 0.26 0.29 0.33 0.31 0.35 0.50 0.68 0.73 0.78 0.82 0.85 0.69 0.47 0.48 0.76 1.01 1.10 1.07 1.11 1.15 1.18 1.24 1.25 1.22 1.20 1.19 1.16 1.18 1.17 1.19 1.19 1.21 1.23 1.28 1.31 1.35 1.38 1.42 1.47 1.48 1.51 1.53 1.54 1.58 1.64 1.69 1.73 1.79 1.78 1.71 1.68 1.71 1.69 1.71 1.72 1.73 1.74 1.88 2.04 2.06 2.04 2.04 2.03 2.05 2.04 2.02 1.99 1.96 1.95 1.98 2.00 2.02 1.98 1.93 1.98 2.09 2.16 2.08 2.11 2.14 2.07 1.96
0.37 0.33 0.30 0.29 0.35 0.35 0.36 0.33 0.35 0.29 0.60 0.74 0.76 0.75 0.80 0.60 0.67 0.83 0.93 1.06 1.16 1.14 1.14 1.14 1.16 1.17 1.20 1.13 1.20 1.22 1.19 1.15 1.14 1.15 1.17 1.19 1.22 1.24 1.28 1.31 1.31 1.32 1.36 1.40 1.42 1.48 1.51 1.51 1.55 1.63 1.66 1.70 1.72 1.73 1.73 1.70 1.69 1.71 1.71 1.65 1.73 1.86 1.91 1.95 1.96 1.98 2.00 2.02 2.00 1.98 1.99 2.02 2.03 2.03 2.06 2.04 2.05 2.02 2.02 2.08 2.11 2.11 2.13 2.09 2.04 1.98
0.47 0.30 0.32 0.36 0.43 0.34 0.32 0.30 0.35 0.57 0.74 0.80 0.75 0.66 0.72 0.85 0.96 0.98 1.00 0.98 1.10 1.13 1.12 1.12 1.14 1.22 1.21 1.17 1.15 1.16 1.11 1.06 1.07 1.10 1.11 1.12 1.16 1.22 1.28 1.30 1.31 1.32 1.34 1.38 1.41 1.44 1.49 1.49 1.51 1.55 1.60 1.66 1.71 1.72 1.69 1.66 1.60 1.62 1.62 1.64 1.81 1.86 1.87 1.86 1.87 1.89 1.89 1.89 1.88 1.89 1.91 1.95 1.96 1.96 2.00 1.97 1.96 1.98 1.96 2.00 2.07 2.07 2.05 2.01 1.95 1.90
0.49 0.39 0.47 0.43 0.54 0.38 0.45 0.57 0.63 0.75 0.77 0.84 0.86 0.89 0.93 0.98 1.03 1.06 1.04 1.03 1.04 1.08 1.19 1.15 1.15 1.20 1.20 1.18 1.14 1.11 1.04 1.00 0.97 0.98 0.97 0.99 1.01 1.05 1.12 1.19 1.25 1.27 1.28 1.29 1.32 1.39 1.41 1.42 1.43 1.46 1.49 1.54 1.60 1.63 1.64 1.62 1.57 1.55 1.55 1.64 1.76 1.81 1.79 1.77 1.77 1.75 1.74 1.76 1.79 1.79 1.80 1.82 1.81 1.81 1.83 1.84 1.84 1.81 1.84 1.88 1.92 1.87 1.90 1.89 1.87 1.87
0.52 0.50 0.53 0.48 0.47 0.55 0.62 0.65 0.72 0.74 0.77 0.81 0.92 0.97 0.97 0.99 1.09 1.12 1.10 1.04 1.10 1.15 1.19 1.14 1.18 1.19 1.19 1.19 1.11 1.06 1.01 0.95 0.90 0.88 0.87 0.88 0.89 0.92 0.95 0.98 1.06 1.14 1.19 1.21 1.22 1.25 1.29 1.34 1.38 1.41 1.41 1.46 1.49 1.54 1.59 1.61 1.63 1.53 1.52 1.60 1.65 1.71 1.69 1.65 1.63 1.59 1.61 1.62 1.66 1.66 1.67 1.64 1.68 1.72 1.75 1.78 1.83 1.80 1.78 1.76 1.76 1.75 1.76 1.75 1.74 1.73
0.48 0.50 0.48 0.45 0.60 0.47 0.48 0.65 0.67 0.69 0.76 0.82 0.89 0.99 1.04 1.09 1.10 1.17 1.13 1.13 1.13 1.18 1.19 1.22 1.22 1.21 1.20 1.16 1.08 1.01 0.99 0.98 0.93 0.90 0.88 0.85 0.83 0.81 0.81 0.83 0.84 0.86 0.87 0.90 0.97 1.03 1.05 1.07 1.09 1.14 1.20 1.26 1.34 1.39 1.44 1.45 1.54 1.58 1.64 1.71 1.69 1.64 1.59 1.56 1.53 1.52 1.51 1.53 1.59 1.62 1.63 1.59 1.60 1.64 1.69 1.74 1.72 1.69 1.70 1.71 1.68 1.64 1.61 1.61 1.61 1.62
0.44 0.52 0.46 0.47 0.46 0.47 0.56 0.65 0.73 0.78 0.82 0.86 0.90 0.93 0.97 1.06 1.11 1.14 1.14 1.17 1.20 1.22 1.23 1.24 1.25 1.22 1.22 1.12 1.07 1.01 0.97 0.96 0.91 0.88 0.85 0.83 0.82 0.82 0.81 0.81 0.81 0.83 0.87 0.90 0.90 0.89 0.86 0.84 0.85 0.87 0.89 0.92 0.97 1.05 1.15 1.24 1.32 1.38 1.39 1.46 1.56 1.63 1.64 1.61 1.58 1.53 1.50 1.50 1.53 1.59 1.63 1.59 1.56 1.56 1.56 1.58 1.60 1.60 1.60 1.63 1.63 1.59 1.58 1.59 1.61 1.58
0.59 0.51 0.43 0.48 0.44 0.50 0.57 0.64 0.70 0.77 0.79 0.83 0.90 0.96 1.03 1.07 1.05 1.06 1.10 1.13 1.16 1.15 1.18 1.23 1.26 1.21 1.18 1.10 1.07 1.01 0.97 0.97 0.98 0.95 0.90 0.87 0.85 0.86 0.87 0.87 0.86 0.85 0.85 0.84 0.87 0.88 0.85 0.84 0.84 0.83 0.82 0.84 0.87 0.90 0.93 0.99 1.06 1.13 1.16 1.19 1.24 1.31 1.35 1.38 1.43 1.48 1.49 1.50 1.49 1.49 1.53 1.52 1.51 1.51 1.51 1.56 1.60 1.55 1.58 1.57 1.53 1.65 1.63 1.73 1.75 1.72
0.45 0.40 0.53 0.46 0.42 0.40 0.43 0.50 0.59 0.54 0.55 0.72 0.86 0.95 1.01 1.09 1.06 1.03 1.05 1.03 1.08 1.08 1.12 1.11 1.14 1.19 1.16 1.11 1.07 1.02 0.96 0.96 0.97 0.97 0.93 0.91 0.89 0.90 0.92 0.93 0.92 0.90 0.90 0.93 0.94 0.93 0.93 0.93 0.90 0.88 0.86 0.87 0.88 0.87 0.86 0.86 0.89 0.93 0.98 1.04 1.04 1.04 1.05 1.11 1.13 1.14 1.17 1.21 1.21 1.22 1.24 1.25 1.28 1.31 1.33 1.31 1.33 1.38 1.44 1.50 1.50 1.52 1.52 1.52 1.57 1.59
0.44 0.54 0.44 0.44 0.43 0.44 0.56 0.55 0.63 0.71 0.69 0.77 0.86 0.95 1.03 1.07 1.04 0.99 0.98 1.02 1.07 1.09 1.10 1.07 1.03 1.04 1.05 1.05 1.08 1.04 1.02 1.01 1.01 1.01 0.97 0.96 0.97 0.98 0.98 0.97 0.96 0.96 0.96 0.98 0.97 0.96 0.96 0.96 0.97 0.95 0.93 0.94 0.95 0.93 0.92 0.91 0.92 0.92 0.92 0.90 0.93 0.92 0.90 0.95 0.96 0.99 1.02 1.07 1.08 1.10 1.10 1.09 1.09 1.12 1.13 1.14 1.15 1.15 1.15 1.16 1.22 1.27 1.32 1.36 1.39 1.43
Wind_Speed
16 15 16 17 16 15 15 15 14 12 11 10 9 9 9 8 7 5 5 7 8 9 11 12 13 15 15 15 17 17 16 15 15 15 14 14 14 14 14 13 12 11 10 10 10 9 9 8 8 9 9 10 11 11 12 12 12 12 12 12 12 12 12 13 13 13 13 13 14 14 14 14 14 14 14 14 13 13 13 13 13 13 12 12 12 11
16 16 16 17 15 14 14 14 14 14 14 13 11 10 9 8 7 5 4 5 7 9 10 10 12 16 16 15 17 17 17 16 16 15 15 15 15 14 14 13 13 12 11 11 10 10 9 9 9 9 9 10 11 12 12 12 12 12 12 12 12 12 12 13 13 13 13 14 14 14 14 14 14 14 14 13 13 12 13 13 13 12 12 12 11 11
16 17 16 16 15 14 15 15 15 15 15 14 12 11 10 9 7 6 5 5 6 8 9 9 11 15 16 14 15 17 17 16 16 16 15 15 16 15 15 14 14 13 12 12 11 10 10 10 10 10 10 11 12 12 12 12 12 12 12 12 12 12 13 13 14 14 14 14 15 14 14 14 14 14 13 13 13 13 13 13 13 12 12 11 11 10
15 15 15 15 15 16 17 16 16 16 15 14 13 12 10 9 8 7 6 6 6 7 9 9 10 14 15 14 15 16 17 16 16 16 15 16 16 16 15 14 14 15 13 12 12 11 11 11 11 11 10 11 12 12 13 12 12 12 12 12 12 13 13 13 14 15 15 15 15 15 15 14 14 13 13 13 13 13 13 13 12 12 11 11 10 10
13 12 13 15 16 17 17 17 17 17 16 15 14 13 11 9 9 8 6 6 7 7 9 9 9 13 16 15 16 16 17 17 17 17 16 17 17 16 16 15 16 15 14 13 13 12 12 12 12 11 11 11 12 12 12 13 12 12 12 13 13 13 14 14 15 15 15 16 15 15 15 14 14 13 13 13 13 13 12 12 11 11 11 10 10 10
13 12 13 15 16 18 18 17 17 17 16 15 14 13 11 11 11 9 8 8 8 7 9 10 8 11 16 18 17 16 16 17 17 18 18 17 18 17 16 16 17 16 15 14 13 13 12 12 12 12 11 12 12 12 12 13 12 12 13 13 14 14 14 15 16 16 16 16 15 15 14 14 14 13 13 13 12 12 12 11 11 10 10 10 9 9
13 12 14 15 16 18 18 18 18 17 17 15 13 13 12 12 12 10 10 9 8 6 7 10 10 9 13 18 19 18 18 18 18 18 19 18 18 18 17 17 17 17 16 15 14 13 13 13 13 13 12 12 12 12 12 12 13 13 13 14 14 15 15 16 16 16 16 15 15 14 14 13 13 13 13 12 12 11 11 10 10 10 10 9 9 9
13 13 14 15 15 16 17 18 18 18 18 16 14 14 13 13 13 11 10 10 8 7 7 10 11 9 11 15 19 20 19 19 19 19 20 19 19 19 19 18 18 18 17 16 15 14 14 14 14 13 13 13 12 12 13 13 13 13 14 14 15 15 16 16 17 17 16 15 15 14 14 13 13 12 12 12 11 10 10 10 9 9 9 9 9 8
12 15 15 15 15 15 16 16 16 18 19 16 15 15 13 13 13 12 11 10 9 9 9 10 11 10 9 11 16 20 22 21 21 20 20 21 20 20 20 20 19 18 18 17 16 15 15 14 14 14 13 13 13 13 13 13 13 14 14 15 16 16 16 17 17 16 15 14 14 14 14 13 12 12 12 12 11 10 10 9 9 9 8 8 8 8
10 13 13 14 15 14 15 15 15 17 18 16 16 16 14 14 14 13 13 11 11 11 11 11 13 11 8 10 14 18 22 23 22 20 21 22 21 20 21 21 20 19 19 18 17 16 16 15 14 14 14 14 13 13 13 13 14 14 15 16 16 16 16 17 17 16 15 14 14 14 13 13 12 12 11 11 10 10 9 9 9 8 8 8 8 8
9 10 11 13 13 13 14 14 15 17 17 16 17 17 15 14 14 13 13 12 12 12 10 10 13 12 9 10 13 14 17 21 23 21 21 22 22 21 21 21 21 20 19 19 18 17 17 16 15 14 14 14 14 14 14 14 14 15 16 16 17 17 17 16 16 16 15 15 14 13 13 12 12 12 11 11 10 10 9 9 8 8 8 7 7 7
11 11 11 12 14 14 13 14 15 16 17 17 18 17 16 14 13 13 14 14 13 12 10 9 12 13 11 10 11 12 12 17 22 23 22 23 23 22 22 22 21 21 20 20 19 18 18 17 16 15 15 15 15 15 15 14 15 15 16 17 17 17 17 16 16 16 15 14 14 13 12 12 11 11 11 10 10 9 9 8 8 8 8 7 7 7
10 12 11 12 13 14 14 14 15 16 17 18 17 17 17 15 13 12 13 14 13 11 10 10 11 12 12 11 11 12 12 14 20 23 23 23 23 23 23 23 22 21 21 21 20 19 18 17 16 16 16 16 16 15 15 15 15 16 16 17 18 18 17 16 16 16 15 14 14 13 12 11 11 11 10 10 10 9 9 8 8 8 8 7 7 7
8 9 11 12 12 14 15 14 14 14 16 18 17 17 17 16 14 13 12 13 12 10 10 11 11 11 11 11 11 12 12 13 17 22 24 24 24 24 24 23 23 22 22 21 21 20 19 18 17 17 17 17 16 16 16 16 16 16 17 17 18 18 17 17 16 16 15 14 13 13 12 11 11 11 10 10 9 9 9 8 8 7 7 7 7 7
6 6 9 11 10 12 15 14 13 13 15 17 17 18 19 17 15 12 10 11 11 10 10 11 11 11 10 9 8 9 10 13 15 20 23 24 24 24 24 24 24 23 23 22 21 21 20 19 18 18 17 17 17 17 17 16 17 17 17 18 18 18 18 17 16 16 15 14 13 13 12 12 11 11 10 10 9 9 8 8 8 7 7 6 6 6
7 5 6 9 9 10 13 14 14 14 14 15 17 18 19 18 17 14 10 10 10 10 10 11 11 10 9 9 8 8 9 11 14 17 21 23 24 25 25 25 24 24 23 22 21 21 21 20 19 19 18 17 17 17 17 17 17 17 17 18 18 18 18 17 16 16 15 14 13 13 13 12 12 11 10 10 9 9 9 8 8 7 7 6 6 6
7 6 5 7 9 11 12 12 14 15 13 13 16 18 17 17 18 16 13 12 12 11 11 11 11 10 9 8 8 9 10 11 13 16 20 23 25 25 25 25 25 24 24 23 22 21 21 21 20 19 19 18 18 18 18 18 18 18 18 18 18 18 18 17 17 16 15 15 14 13 13 13 12 12 11 10 10 9 9 8 8 7 7 6 6 6
6 6 5 6 7 9 11 12 13 15 14 12 14 16 16 17 18 16 13 13 14 13 11 11 11 9 9 8 7 9 10 11 13 15 18 23 26 26 26 25 25 25 24 23 23 22 21 22 21 20 19 19 18 18 18 18 18 18 18 18 18 18 18 17 17 16 15 15 14 14 14 13 13 12 11 11 10 10 9 9 8 7 7 6 6 6
6 7 6 5 5 7 10 12 12 14 16 14 12 14 15 17 18 16 14 13 13 12 10 10 10 9 7 7 7 7 9 10 13 14 15 20 25 27 27 27 25 25 25 24 23 22 22 22 22 21 20 20 19 19 19 19 18 18 18 18 18 18 18 17 17 16 16 15 14 14 14 14 13 13 12 11 11 10 10 9 9 8 7 7 7 7
7 8 7 5 5 7 10 12 12 13 15 15 13 14 15 16 16 16 14 13 12 11 9 9 10 9 7 6 6 7 8 10 12 13 14 17 24 27 27 27 27 26 25 25 24 23 23 22 22 22 21 20 20 19 19 19 18 18 18 18 18 18 18 17 17 16 16 16 15 14 14 14 14 14 13 12 12 11 10 10 9 9 8 8 7 7
7 9 9 6 6 8 10 11 12 12 13 15 16 15 15 16 16 15 14 14 13 11 9 8 8 8 7 7 7 7 8 10 11 13 12 14 20 25 27 27 27 27 26 25 25 24 23 23 22 22 21 21 20 20 19 19 19 18 18 18 18 18 18 18 17 17 16 16 15 15 15 14 14 14 14 13 13 12 11 11 10 9 9 8 8 8
8 9 10 9 8 8 9 11 12 12 12 15 15 16 15 16 17 16 15 15 14 12 10 8 8 7 7 7 7 7 8 10 11 12 12 13 16 21 27 28 27 27 26 25 26 25 24 24 23 22 22 21 21 20 20 19 19 19 18 18 18 18 18 18 17 17 16 16 15 15 15 15 15 14 14 14 13 13 12 11 11 10 10 9 9 9
8 9 11 11 9 7 7 10 12 11 11 13 14 15 15 14 16 16 14 14 14 13 10 9 10 8 7 6 6 7 8 9 11 12 12 13 13 17 24 27 27 28 27 26 26 26 25 24 23 23 22 22 21 21 21 20 19 19 19 19 19 18 18 18 18 17 17 16 16 16 15 15 15 15 15 14 14 13 13 12 12 11 11 10 10 10
8 9 11 11 10 7 7 8 10 11 11 13 14 14 13 14 15 15 13 13 13 13 10 10 10 8 6 5 5 5 7 8 9 11 12 13 12 13 21 27 28 28 28 27 26 26 25 25 24 23 23 22 22 22 21 21 20 20 19 19 19 19 19 18 18 18 17 17 17 16 16 16 15 15 15 15 14 14 14 13 12 12 12 11 11 10
8 9 10 11 10 10 9 8 9 12 13 13 12 11 12 13 14 15 14 13 14 14 11 11 9 7 6 6 5 5 6 7 8 9 10 12 12 12 17 26 29 28 29 28 25 25 25 25 25 24 23 23 22 22 22 21 21 20 20 20 19 19 19 18 18 18 18 18 17 17 17 16 16 16 15 15 15 14 14 14 13 13 12 12 12 11
8 8 9 11 11 12 12 10 10 12 12 13 11 10 12 13 13 14 14 15 15 14 12 11 9 7 6 6 5 5 5 6 6 7 9 10 11 11 15 24 29 28 28 28 26 24 24 24 24 24 24 23 23 22 22 22 21 21 20 20 19 19 19 19 18 18 18 18 18 17 17 17 16 16 16 16 15 15 14 14 14 13 13 13 12 12
7 7 7 8 10 11 11 10 11 11 11 11 10 10 12 13 14 15 15 16 15 13 12 12 11 8 7 6 6 5 5 6 6 6 7 8 10 12 14 21 27 28 28 28 26 25 24 24 24 24 24 24 23 23 22 22 22 22 21 21 20 19 19 19 19 19 19 18 18 18 18 18 17 17 16 16 15 15 15 14 14 14 14 13 13 13
7 7 7 6 8 10 10 10 10 10 10 11 10 10 11 13 14 16 17 16 14 13 12 11 10 10 8 5 6 6 6 6 5 5 6 7 9 11 14 19 25 28 28 28 27 26 25 24 24 24 24 24 24 23 22 22 23 22 22 21 20 20 20 20 19 19 19 19 18 18 18 18 18 17 17 16 16 16 15 15 15 15 14 14 14 14
6 7 7 7 8 9 10 10 10 9 10 11 11 10 11 12 13 15 17 17 15 15 14 10 10 11 9 7 6 6 5 6 5 4 4 5 7 10 14 18 22 26 28 28 28 27 26 25 24 24 23 23 23 23 22 22 22 22 22 22 21 21 20 20 20 20 19 19 19 19 18 18 18 18 18 17 17 17 16 16 16 15 15 15 15 14
5 6 6 7 8 9 10 10 9 9 9 10 11 10 10 11 12 13 15 16 16 17 16 13 12 11 9 8 7 6 6 5 5 4 3 2 4 6 10 15 19 22 24 26 26 26 25 25 25 24 23 23 23 23 22 22 22 22 22 22 22 22 21 21 21 20 20 20 20 19 19 18 18 18 18 18 18 18 17 17 16 16 16 16 15 15
5 5 5 6 7 9 10 10 9 9 9 9 10 9 9 10 11 12 13 14 16 17 16 15 14 12 10 10 8 7 6 5 5 4 2 1 2 4 8 12 16 18 20 22 23 24 24 24 24 23 22 22 23 23 23 22 22 22 22 23 23 23 22 22 22 21 21 21 20 20 19 19 19 19 19 19 18 18 18 18 17 17 17 17 17 16
4 4 4 5 6 8 10 11 10 10 9 9 9 9 9 10 11 12 12 13 15 14 14 15 15 13 12 11 9 8 7 5 4 3 2 1 1 3 7 11 13 16 18 20 21 22 23 23 23 22 21 21 21 22 22 23 23 23 23 23 23 23 23 23 23 22 22 22 21 21 20 20 20 19 19 19 19 19 19 19 19 19 18 18 18 17
4 4 4 5 6 7 9 10 10 10 11 11 10 8 9 10 11 12 12 13 14 14 13 14 14 13 12 12 11 10 8 7 5 3 3 2 2 2 4 9 13 15 17 20 21 21 23 23 22 21 21 20 21 21 22 22 23 23 23 23 24 24 24 24 24 23 23 22 22 22 21 21 21 20 20 20 20 20 19 19 19 19 19 19 19 19
4 4 4 4 5 6 8 9 10 11 12 10 9 9 9 10 11 12 12 13 15 15 13 13 13 14 13 12 11 11 9 7 6 4 3 3 3 3 4 5 9 13 16 19 20 21 22 22 21 21 21 20 20 20 21 23 23 24 24 24 24 24 24 24 24 24 24 23 23 22 22 21 21 21 21 20 20 20 20 20 20 20 20 20 20 20
5 5 4 5 5 5 5 8 10 11 10 9 9 9 9 9 10 11 12 13 15 14 12 12 14 15 13 12 12 11 10 8 7 6 4 3 3 4 4 4 6 10 14 17 19 20 21 20 20 20 20 20 20 20 20 22 23 24 25 25 25 25 25 25 25 25 24 24 23 23 22 22 21 21 21 21 21 21 21 21 21 21 21 21 21 21
7 6 5 5 5 5 5 7 8 8 8 9 9 10 10 10 9 11 12 13 15 14 10 11 15 15 13 13 12 11 10 9 7 5 4 3 3 3 4 4 4 6 10 13 16 18 19 19 18 18 18 18 19 19 20 21 23 24 24 25 26 26 26 26 25 25 24 24 24 23 23 22 22 21 21 21 21 21 21 21 22 22 22 21 21 21
8 7 6 6 5 5 6 6 6 7 9 10 10 10 10 9 9 10 11 12 15 15 10 10 15 15 14 14 13 12 11 10 8 6 4 4 4 3 4 4 3 4 6 10 14 16 17 17 17 17 17 16 16 17 19 20 22 23 24 25 25 26 26 26 26 25 25 24 24 23 23 22 22 22 22 22 22 22 21 21 22 22 22 22 22 22
8 8 7 7 6 5 6 6 6 7 8 9 10 9 9 9 9 10 10 11 14 15 9 8 13 15 14 13 14 13 12 9 8 8 6 5 5 4 5 5 4 4 5 7 11 14 14 14 15 16 16 15 14 16 17 19 21 23 24 25 25 26 26 26 26 26 25 25 24 24 24 23 23 23 22 22 22 22 22 22 22 22 22 23 23 23
9 9 8 8 7 6 6 7 6 6 6 8 10 10 10 10 10 9 9 9 13 15 11 8 11 13 12 12 13 13 12 10 9 9 7 7 6 5 6 6 5 5 5 5 8 10 10 10 12 13 13 13 14 14 15 16 18 20 22 24 25 26 27 27 26 26 26 25 25 24 24 24 24 23 23 23 23 22 22 22 23 23 24 24 24 24
9 9 9 10 9 7 7 7 6 5 5 7 9 10 10 11 10 8 7 8 12 15 13 11 11 11 11 11 13 13 12 11 11 9 8 7 7 6 6 5 5 5 5 5 6 8 8 8 9 10 10 11 12 11 11 12 13 16 18 20 23 25 27 27 26 26 26 26 26 25 25 25 25 24 25 25 25 24 24 24 24 24 24 25 24 24
8 9 9 10 10 8 8 8 6 5 5 6 8 10 11 11 11 8 6 8 10 12 13 12 11 10 9 9 11 11 10 11 11 10 9 8 7 6 6 6 5 4 4 5 6 7 7 7 8 9 9 9 10 9 8 8 9 11 14 16 18 20 24 27 27 27 27 27 27 26 26 26 26 26 26 26 26 26 26 25 24 24 25 25 24 24
7 8 8 9 10 8 8 8 7 5 5 6 8 10 11 11 10 8 7 9 10 11 11 11 10 10 9 9 10 10 10 11 11 10 9 8 7 7 6 6 6 4 4 4 5 6 7 7 7 7 8 8 8 8 7 6 6 7 9 12 14 16 18 21 23 24 24 24 25 25 25 25 25 25 25 26 26 26 26 26 25 25 25 24 23 23
6 7 7 7 8 8 8 9 7 6 5 7 8 10 11 10 9 8 9 9 10 10 10 10 9 10 9 9 9 10 10 10 10 10 9 8 7 7 6 6 6 5 4 4 5 5 6 6 6 6 6 6 7 6 6 5 5 5 5 6 9 11 12 14 16 19 20 21 21 22 22 23 23 23 24 24 24 25 24 25 25 24 23 23 22 22
6 7 7 6 6 8 8 8 7 6 6 7 8 9 9 9 9 9 9 9 10 10 10 10 10 10 9 9 9 9 9 9 9 9 8 8 7 7 6 6 6 5 5 5 5 5 5 5 5 5 5 5 6 6 6 5 4 4 3 3 5 6 7 8 10 12 14 15 16 17 18 19 20 21 22 22 23 23 23 23 22 21 21 22 22 22
6 6 7 6 6 7 7 6 7 7 7 7 8 8 9 10 9 9 9 9 9 10 10 10 11 10 10 10 9 9 8 8 8 8 8 7 6 6 5 5 5 5 5 4 4 5 5 5 5 5 5 5 5 5 5 5 4 3 3 3 4 4 4 5 6 7 8 9 10 10 11 12 14 16 17 18 19 21 22 22 22 22 22 22 22 21
6 6 7 7 6 6 6 7 8 8 8 8 8 9 10 10 10 10 9 9 9 9 10 10 11 11 11 10 9 9 8 8 8 7 7 6 6 5 5 4 4 4 4 4 4 4 4 4 4 4 4 4 4 4 5 5 5 4 4 5 4 4 4 5 5 5 6 6 7 6 6 6 7 9 10 12 13 15 17 19 20 21 21 20 19 19
7 7 7 6 6 6 6 7 8 8 9 9 9 10 10 10 11 10 10 10 10 10 10 11 11 11 11 10 9 9 9 9 8 7 7 6 6 5 5 4 4 4 4 4 4 4 4 3 3 3 3 3 3 4 4 4 5 5 4 5 5 4 4 4 4 4 5 5 5 5 5 5 5 5 6 8 9 9 10 11 13 14 14 14 14 14
7 8 7 6 7 6 6 6 7 7 9 9 10 10 11 11 10 10 10 11 11 11 11 11 11 11 11 10 10 10 9 9 8 8 7 7 6 6 5 4 4 4 3 3 3 3 3 3 3 3 2 2 3 3 3 4 5 5 4 4 4 4 5 5 5 5 5 5 5 5 5 5 5 5 5 6 6 6 6 6 7 9 10 11 12 12
7 8 7 7 7 6 6 7 7 7 8 10 10 11 11 11 11 10 10 11 11 11 11 11 11 11 11 10 10 10 9 9 9 8 8 7 7 6 5 5 4 4 4 3 3 3 3 2 2 2 2 2 3 3 3 3 4 5 5 5 5 5 5 5 5 6 5 5 5 6 6 6 6 6 6 6 6 6 6 7 7 8 9 10 11 12
8 8 7 7 7 7 7 8 8 8 8 10 11 11 12 12 12 11 11 11 11 11 11 11 11 11 11 11 11 10 10 9 9 9 8 8 7 7 6 6 5 5 4 4 3 3 3 2 2 2 3 3 3 3 3 4 4 5 6 6 6 6 6 6 6 6 6 6 6 6 6 6 6 6 7 7 7 7 7 8 8 9 10 10 11 12
9 9 8 8 7 6 6 8 8 7 7 9 10 11 12 12 12 12 12 11 12 12 12 12 11 11 11 11 11 11 10 10 10 9 9 9 8 8 7 7 7 6 6 5 5 4 4 4 3 3 3 4 4 4 5 5 5 6 6 7 7 7 8 8 8 8 8 8 8 8 8 8 8 8 8 8 9 9 9 9 9 10 10 11 11 12
Wind_Direction
225 226 225 226 228 225 224 227 231 232 231 234 238 240 241 240 242 248 249 234 224 221 214 207 208 203 196 200 200 194 195 196 193 190 189 189 187 187 190 186 183 182 178 175 173 171 168 164 159 153 152 150 149 149 151 153 154 155 155 155 155 155 154 153 153 153 152 150 149 149 149 148 147 147 147 147 148 149 150 151 151 151 150 150 152 152
226 229 226 224 224 224 225 228 230 231 232 236 239 240 239 237 243 253 257 243 230 227 218 208 211 206 199 200 198 194 196 198 196 194 191 191 190 190 191 188 183 182 179 176 175 173 170 167 162 156 154 154 152 152 154 154 155 157 157 158 157 156 155 154 154 154 153 152 150 149 149 148 148 148 148 148 149 149 150 151 150 151 151 152 153 153
226 230 225 221 223 226 227 228 229 229 231 233 233 237 238 235 239 244 246 237 229 231 222 214 213 205 201 203 199 196 199 200 198 197 195 193 193 192 192 189 185 183 182 180 177 175 173 170 166 160 157 157 156 156 157 157 158 158 158 159 159 158 156 155 155 155 154 153 151 149 148 147 147 147 147 147 147 147 148 149 150 151 152 153 153 154
227 228 223 221 224 226 226 225 227 228 229 229 228 233 233 232 240 240 239 233 226 231 223 217 213 203 202 207 206 202 204 204 202 200 198 195 195 194 193 191 188 186 184 183 180 177 175 173 171 165 161 160 159 159 159 159 160 160 160 160 161 159 157 156 157 156 154 152 150 149 148 146 146 146 145 145 146 146 148 149 151 152 152 154 154 155
229 226 222 222 222 224 225 224 225 227 229 226 224 232 229 228 242 242 237 229 221 226 218 212 217 210 205 207 207 206 207 207 204 202 200 197 196 195 193 192 191 188 186 186 184 180 177 177 175 169 165 164 162 162 162 162 162 161 161 161 161 160 158 157 156 155 152 151 150 148 147 146 145 146 146 146 147 147 149 150 152 153 154 155 155 155
231 225 223 224 222 223 226 225 225 226 229 226 220 224 221 225 241 238 231 229 223 225 213 206 217 215 210 209 207 205 208 208 204 203 201 197 196 196 194 193 192 189 189 189 186 183 180 179 178 173 169 167 165 165 165 164 163 162 162 162 161 161 159 157 155 154 151 151 150 149 149 148 147 148 148 148 148 149 150 151 153 154 156 156 157 158
229 223 224 225 222 223 225 226 225 223 229 229 218 216 216 224 236 230 227 231 228 229 214 209 216 216 216 214 208 205 209 210 207 204 201 198 198 197 195 195 194 191 190 191 189 186 183 181 180 176 173 171 168 167 165 165 164 163 162 162 161 161 159 157 155 154 153 152 153 152 151 150 149 149 150 149 149 150 151 151 153 155 157 158 159 160
226 222 223 224 224 224 223 225 225 223 227 228 218 218 219 222 229 225 225 230 229 227 220 215 217 220 224 217 209 208 211 212 211 207 202 200 200 199 197 196 196 193 191 191 190 188 185 182 182 179 176 173 170 168 167 166 165 164 163 162 162 162 159 157 156 155 155 154 155 155 154 153 152 151 152 152 150 150 152 151 153 155 157 160 162 163
224 225 223 223 226 226 224 225 224 222 226 226 219 220 217 218 226 226 227 230 226 228 227 215 213 222 225 212 207 212 216 215 213 210 206 203 201 200 199 198 197 195 193 192 191 190 187 184 184 181 178 175 172 169 168 167 166 165 164 163 163 163 160 159 158 158 157 156 156 157 156 155 154 153 153 155 153 152 153 153 153 155 156 160 163 165
228 227 225 224 227 228 226 225 224 223 225 222 217 218 215 217 225 226 227 229 224 229 231 214 210 222 226 209 206 213 219 218 215 212 209 205 202 201 200 199 198 196 194 193 192 191 188 186 186 184 180 177 173 171 170 169 167 166 166 165 165 164 163 161 161 160 160 158 159 160 160 159 158 157 156 156 157 157 157 157 157 158 158 159 163 167
228 223 227 227 228 229 226 222 222 224 222 216 214 215 211 214 224 227 225 225 225 226 224 210 210 221 228 214 207 212 216 216 213 211 209 206 202 201 201 198 197 196 194 193 192 191 188 187 187 185 182 179 175 172 171 171 170 168 168 168 167 166 165 165 164 164 163 162 163 164 164 164 162 161 160 159 160 160 160 161 161 162 162 162 164 167
225 222 226 226 226 228 225 221 221 220 216 214 215 212 210 213 222 228 223 219 224 223 214 209 212 219 228 221 211 213 214 212 212 211 207 205 202 201 201 198 196 196 194 192 192 191 188 188 188 185 182 180 177 174 173 173 172 170 170 171 170 169 169 168 168 168 168 168 168 168 168 167 166 166 165 165 164 164 164 164 164 165 166 167 168 170
225 224 224 222 222 224 223 220 218 215 213 214 213 211 213 215 216 224 220 214 220 219 212 214 213 220 232 230 220 217 216 214 213 211 206 203 202 201 200 198 195 195 194 192 192 191 189 189 189 185 182 181 180 177 175 175 175 173 173 174 174 173 172 172 173 173 173 174 173 172 171 170 171 171 170 170 169 169 168 168 168 168 169 170 171 174
224 220 218 219 220 220 221 220 215 213 213 213 211 211 215 215 213 220 218 213 219 216 212 216 217 226 234 230 224 221 218 215 212 209 204 202 202 201 200 198 195 194 194 192 192 192 190 189 189 186 183 183 183 181 178 176 177 176 176 177 177 177 177 176 176 177 177 178 178 177 176 175 174 175 175 174 174 174 174 173 172 171 171 173 174 176
236 219 211 216 218 214 217 221 218 214 215 215 213 213 218 216 212 219 218 214 217 212 208 211 217 229 231 220 219 220 215 211 209 205 201 201 202 201 200 198 195 193 194 193 193 192 191 190 189 187 185 185 185 184 182 179 178 178 179 180 180 180 180 180 180 181 181 182 182 181 180 180 179 178 179 178 178 179 178 177 176 175 174 175 177 179
238 223 205 219 222 214 216 221 220 219 220 218 214 215 219 215 211 220 228 223 223 223 216 212 217 228 227 218 219 224 216 206 203 201 199 200 202 201 199 198 195 194 194 194 194 193 192 191 190 189 188 187 186 185 185 182 181 181 181 183 183 183 183 184 184 184 184 185 185 185 184 183 183 183 183 183 183 184 183 182 181 182 182 181 182 185
234 221 212 228 226 220 223 222 219 221 220 215 214 216 217 212 212 221 229 225 225 229 221 215 221 224 219 220 226 228 220 203 199 201 199 199 201 201 199 197 195 194 194 195 196 194 193 192 192 191 190 189 188 187 187 186 184 184 184 185 185 186 186 187 187 188 188 188 188 188 188 188 188 188 188 189 189 189 190 189 189 189 190 191 190 189
246 232 224 235 230 225 227 225 220 219 218 217 216 214 210 209 212 218 225 223 220 223 219 217 224 223 217 220 223 221 214 201 196 199 200 200 201 201 199 197 196 195 194 195 196 195 194 193 193 192 191 191 190 188 189 189 188 186 187 187 187 188 189 189 190 191 191 191 192 192 192 193 194 194 194 195 195 194 195 196 196 197 198 199 197 194
256 245 231 235 245 239 225 221 220 216 218 222 219 210 206 208 210 212 219 223 218 219 220 217 216 217 219 220 219 220 213 203 197 197 200 202 201 201 199 198 198 197 196 195 196 196 195 194 194 193 192 192 191 190 190 191 190 189 189 190 190 191 191 192 193 194 195 195 196 196 197 198 198 199 199 200 200 200 200 202 203 205 206 206 204 202
254 250 244 237 251 252 226 217 219 214 213 220 218 212 211 211 209 209 214 219 216 214 216 218 213 209 218 229 230 231 222 210 202 198 201 201 200 201 200 199 199 198 197 195 195 196 196 194 195 195 194 193 193 192 191 192 192 192 192 192 193 193 194 195 195 196 197 198 199 199 199 200 202 203 204 204 205 205 206 207 209 211 211 211 210 208
249 250 249 237 237 244 228 220 225 216 210 213 213 210 210 209 208 211 216 218 218 212 207 219 221 207 213 236 239 235 227 218 208 201 200 198 199 201 202 201 201 198 197 196 196 196 196 195 195 195 195 194 194 194 193 193 194 195 195 194 195 196 196 198 198 198 200 201 201 202 202 203 203 205 206 208 210 210 211 212 213 215 215 214 215 213
249 251 251 247 244 241 230 227 230 223 215 213 207 207 211 208 205 210 214 211 212 210 204 217 232 220 222 239 242 236 228 219 211 204 199 195 197 201 203 203 200 197 196 196 196 196 196 196 196 195 195 195 195 195 195 195 195 196 197 197 198 198 199 200 200 201 202 203 204 205 205 205 206 207 208 210 211 213 214 215 216 217 217 217 218 219
258 256 253 252 252 247 234 228 226 220 214 207 204 210 215 208 205 211 213 206 205 207 209 225 232 224 225 238 242 235 225 219 211 204 198 194 195 200 202 201 199 198 198 198 198 197 196 197 197 196 195 195 197 197 197 197 197 197 198 199 201 201 201 202 203 203 204 206 207 207 208 208 209 210 211 212 213 215 216 217 217 218 219 220 221 222
256 256 251 247 246 239 226 221 219 213 206 203 207 215 215 207 208 216 216 211 208 203 208 228 226 215 221 233 234 227 216 212 208 203 199 195 194 199 202 200 199 200 200 199 200 199 198 197 198 197 196 196 198 200 199 199 200 201 201 202 203 204 204 205 205 205 206 208 209 209 210 211 212 212 213 214 216 217 219 220 220 220 221 222 223 225
256 260 253 244 238 228 217 215 216 210 202 203 210 213 210 209 215 218 214 215 215 206 210 229 224 211 222 227 221 218 207 203 204 203 203 200 195 198 201 200 199 199 200 200 201 201 200 198 198 198 197 197 200 202 202 203 204 205 205 205 205 206 206 207 207 207 208 210 211 212 212 213 214 215 216 217 219 220 221 222 222 223 223 224 226 227
258 260 251 241 236 230 227 223 220 214 206 206 213 212 208 210 217 218 213 212 212 206 211 226 224 212 215 215 214 215 205 201 205 206 209 207 200 196 198 199 198 198 199 200 201 202 201 200 199 198 198 201 203 203 205 206 207 207 208 207 207 207 207 208 209 209 210 211 212 213 214 215 216 218 218 219 221 222 223 224 224 225 225 226 228 229
259 253 249 241 232 231 234 229 223 223 218 213 215 213 209 210 215 218 216 212 210 211 216 222 225 221 209 202 211 220 213 207 208 212 217 217 211 203 197 197 199 200 200 200 200 202 201 200 199 200 201 204 205 205 207 208 209 209 210 210 210 209 209 210 210 210 212 213 214 215 216 217 218 219 220 221 222 224 224 225 226 226 227 228 230 231
266 254 252 242 218 215 224 225 223 224 222 217 215 212 210 211 214 219 220 214 207 212 217 219 224 224 214 204 211 220 224 215 208 218 227 227 225 217 203 197 198 201 202 202 201 202 202 201 201 201 203 206 207 207 208 210 211 212 212 212 213 212 211 212 212 212 213 214 216 217 218 219 220 221 222 223 224 225 226 227 228 228 230 231 232 233
270 255 250 240 218 212 216 220 222 224 223 220 217 215 216 216 215 219 222 217 210 213 221 227 226 220 215 212 208 211 224 218 207 218 230 231 233 225 210 200 196 197 200 203 203 203 204 204 203 203 205 206 208 207 209 211 213 214 215 215 215 215 214 214 214 215 216 217 219 220 220 221 222 223 224 225 227 228 228 229 230 231 232 233 235 236
271 258 244 231 223 223 222 217 218 224 226 222 218 220 223 222 220 219 220 220 219 221 228 235 228 216 213 213 204 202 212 211 204 209 221 237 238 224 208 199 196 195 197 200 201 202 204 204 203 204 205 207 209 209 210 212 213 215 217 217 218 217 217 216 217 217 218 219 221 222 223 223 224 225 226 227 229 230 230 231 232 233 234 236 237 239
273 260 236 225 227 229 223 216 218 225 227 221 218 220 224 223 220 219 220 221 219 221 228 231 224 216 213 208 199 192 190 191 196 198 201 229 220 204 197 194 193 194 195 196 197 199 201 202 202 203 205 209 211 212 213 214 215 217 218 219 219 219 219 220 220 220 221 222 223 224 225 225 225 226 227 229 230 231 232 233 234 234 235 237 239 240
276 260 230 231 240 234 224 222 228 230 225 219 217 221 224 220 217 220 224 221 217 218 226 228 222 214 207 201 193 185 176 173 182 185 183 187 169 181 192 194 194 194 195 196 195 197 199 200 201 203 206 210 214 215 216 217 218 220 221 222 221 221 221 222 223 224 224 224 225 226 227 228 228 228 229 230 232 233 235 236 237 237 238 239 240 241
276 260 235 237 248 242 229 228 235 234 227 222 219 221 223 218 216 220 222 220 217 215 222 228 220 206 198 195 191 187 179 175 180 182 175 162 138 147 175 191 197 197 197 197 196 198 200 201 202 205 208 212 216 218 220 221 222 223 224 224 224 223 223 223 224 226 227 228 228 228 229 229 230 231 232 232 233 235 236 237 239 240 241 242 242 243
267 266 260 252 258 252 234 231 237 233 228 223 217 217 221 217 217 219 219 219 217 215 226 232 213 194 191 191 185 182 176 171 174 177 168 148 140 132 129 161 189 196 198 198 198 200 201 201 203 207 210 214 218 222 224 226 226 226 226 226 225 225 225 225 226 227 228 229 230 230 231 231 231 232 234 234 235 236 237 238 240 241 242 243 244 245
260 265 271 266 267 267 242 236 239 231 224 220 213 212 216 215 219 222 218 217 215 216 230 229 203 187 186 186 180 173 166 163 167 168 161 150 145 140 123 118 154 182 191 194 196 200 201 201 204 209 213 216 221 225 227 228 228 228 227 227 226 225 226 227 227 228 228 229 230 231 233 233 233 234 235 236 237 237 238 240 241 242 243 244 245 246
255 261 268 266 267 270 251 241 242 233 223 220 214 213 215 215 221 220 213 211 211 211 220 214 195 185 182 181 178 172 166 163 167 170 168 170 164 153 146 129 130 159 177 185 189 193 197 199 204 210 214 218 223 228 230 231 231 230 228 228 228 227 227 227 228 228 229 229 229 231 232 234 236 236 237 238 239 240 241 242 243 244 245 246 247 247
250 257 263 260 258 263 260 250 242 232 225 219 213 212 214 215 216 212 209 211 209 208 214 205 189 181 179 179 176 176 174 170 174 184 186 183 177 156 150 152 144 145 161 178 186 190 195 199 203 208 212 217 225 231 235 235 233 231 229 228 228 228 227 227 228 228 229 230 231 231 232 233 235 237 238 240 242 243 244 244 244 245 246 247 248 248
247 251 256 256 251 255 260 256 247 238 227 214 205 202 200 200 199 202 210 213 206 204 213 207 188 180 179 181 180 182 184 180 182 192 196 191 187 169 152 150 151 148 148 165 178 186 194 201 206 210 213 219 229 237 240 238 233 230 229 230 229 229 229 228 228 228 229 230 231 232 233 234 235 237 239 241 243 244 246 246 246 247 248 248 249 249
244 245 248 251 250 250 254 254 252 246 229 208 201 200 196 194 196 203 215 216 202 199 205 209 198 190 189 190 191 192 193 190 187 191 194 191 191 186 174 162 155 152 146 148 166 181 193 200 205 209 213 220 230 239 243 240 233 230 230 232 232 231 230 230 229 228 229 231 232 233 234 235 236 238 241 242 243 245 247 248 248 249 249 249 249 250
242 242 241 245 246 244 247 252 253 246 230 209 203 205 202 201 205 212 221 219 205 200 204 209 205 202 203 201 196 194 193 189 187 189 189 185 184 186 184 177 166 158 152 149 161 178 191 199 202 206 214 222 228 234 237 237 236 233 231 232 234 234 233 231 230 230 231 233 234 234 236 238 239 240 243 243 244 245 248 250 251 251 250 249 249 250
242 241 241 245 246 241 242 250 250 237 227 215 204 203 204 207 212 218 219 209 198 196 203 208 204 200 200 193 184 182 180 177 179 183 182 178 177 176 174 175 173 167 163 162 164 171 178 185 193 199 207 215 219 222 225 231 237 236 230 228 232 235 234 232 231 232 233 234 234 235 238 240 242 243 245 245 245 246 249 251 251 251 250 249 249 250
243 241 241 244 244 240 240 245 242 231 230 222 203 197 204 212 216 218 212 198 189 188 193 197 195 187 175 166 167 171 170 171 176 179 177 175 176 174 172 173 176 179 173 167 169 171 168 168 176 184 191 200 207 212 219 225 230 232 229 226 227 231 231 229 229 230 231 231 233 235 239 242 243 244 245 246 247 248 248 249 250 250 249 248 249 250
244 244 240 238 238 237 238 240 239 236 231 220 206 203 211 217 216 212 206 197 193 194 190 184 182 175 164 161 165 165 165 170 176 176 176 177 179 180 178 174 178 186 181 165 164 168 166 163 166 170 178 191 198 202 208 212 212 214 216 218 223 227 225 222 223 225 226 228 232 237 240 241 242 243 244 246 247 247 247 248 249 247 245 246 249 251
241 245 244 238 234 237 239 237 236 235 227 220 217 214 211 208 207 206 204 200 198 198 193 185 181 176 168 167 170 169 167 171 175 176 179 184 187 189 190 185 181 183 182 172 166 165 163 162 162 162 170 184 191 192 191 191 191 195 200 208 214 217 214 209 208 212 217 224 231 236 239 241 243 243 244 245 246 246 246 245 243 242 243 248 251 252
240 245 248 247 242 241 241 236 232 230 223 218 219 211 200 199 203 204 201 200 199 198 195 190 186 183 181 178 177 178 178 176 176 179 183 188 193 196 197 195 192 188 187 185 180 173 168 164 162 161 166 176 187 192 194 195 191 184 193 207 200 192 198 198 190 190 197 205 214 222 228 233 238 240 242 243 243 243 244 242 241 243 248 252 253 252
237 238 245 247 241 235 238 236 230 225 219 213 211 206 200 200 203 202 198 198 198 196 195 192 187 187 189 188 186 185 184 182 181 182 185 189 194 195 195 195 196 196 195 194 193 190 184 175 167 165 166 172 185 193 199 205 200 186 190 205 201 185 187 191 186 184 188 190 197 206 213 221 230 235 239 241 240 240 240 242 244 247 249 250 251 250
228 232 241 241 234 233 234 231 226 222 217 212 209 207 203 201 203 205 204 201 198 195 192 189 188 188 189 190 190 189 187 186 186 186 188 188 187 186 186 185 187 193 197 197 199 200 199 194 185 176 171 175 186 193 197 202 202 197 197 205 205 197 192 191 193 197 198 197 203 209 211 215 222 226 228 232 235 236 238 241 244 245 244 243 244 245
226 230 237 234 232 236 233 224 222 221 217 213 212 209 205 202 201 203 203 200 197 195 192 189 189 189 189 189 189 189 189 191 192 192 193 193 191 189 188 184 184 190 196 200 203 202 202 207 208 202 197 199 202 203 201 202 207 211 213 213 213 213 214 218 223 226 225 224 227 228 223 220 220 222 223 224 227 232 236 240 242 242 242 244 246 247
222 225 231 230 229 235 232 220 219 219 214 213 213 209 206 204 201 199 199 197 196 195 194 193 193 191 189 188 189 188 189 193 197 197 198 201 201 200 198 196 194 193 196 200 202 199 200 207 215 220 226 232 230 225 220 217 220 224 229 232 233 231 230 231 231 234 238 240 240 240 238 236 235 236 238 238 237 238 243 248 252 252 251 253 256 256
224 225 227 229 230 235 228 215 216 223 218 211 208 205 203 202 200 196 196 197 196 197 197 196 195 194 193 193 193 192 192 195 199 201 204 208 210 208 208 209 208 206 206 207 208 211 213 217 224 233 244 251 252 251 247 242 242 243 244 245 245 244 243 242 241 243 246 247 248 250 250 249 248 247 247 251 253 254 255 259 265 267 265 262 263 262
227 225 224 230 236 235 217 206 214 226 217 204 203 204 201 200 199 197 197 197 196 197 198 197 197 198 199 200 200 199 199 201 203 205 208 212 215 216 218 220 220 221 221 221 224 229 232 235 239 241 247 255 259 261 262 261 260 259 259 259 258 255 253 251 250 251 252 251 253 256 256 256 258 258 258 260 262 263 264 266 270 274 274 272 271 270